Preview of NWS' New Version of Forecast
This preview is not operational and should not be used for support decisions.

Regional Weather Roundup (RWR)

Issued by National Weather Service (NWS)

                            
000
ASUS44 KMEG 221100
RWRTN 
TENNESSEE HOURLY STATE WEATHER ROUNDUP
NATIONAL WEATHER SERVICE MEMPHIS TN
600 AM CDT WED MAY 22 2019

TNZ002-004-019-021-049-052-054-088>092-221200-
WEST TENNESSEE
  
CITY           SKY/WX    TMP DP  RH WIND       PRES   REMARKS
MEMPHIS INTL   MOCLDY    76  70  82 S12G21    29.85R                  
NWS MEMPHIS      N/A     76 N/A N/A MISG        N/A                   
JACKSON        MOCLDY    73  67  81 S5        29.89R                  
DYERSBURG      CLOUDY    66  63  90 N3        29.90R                  
$$

TNZ008-025-027-028-033-062-065-066-221200-
NORTH MIDDLE TENNESSEE
  
CITY           SKY/WX    TMP DP  RH WIND       PRES   REMARKS
NASHVILLE      MOCLDY    73  62  68 S12       29.96R                  
CLARKSVILLE    FAIR      74  63  68 S8        29.90S                  
SMYRNA         FAIR      71  63  75 S5        29.98R                  
CROSSVILLE     FAIR      66  59  78 CALM      30.06R                  
$$

TNZ061-075-076-078-094-096-097-221200-
SOUTH MIDDLE TENNESSEE
  
CITY           SKY/WX    TMP DP  RH WIND       PRES   REMARKS
$$

TNZ017-018-042-046-047-221200-
NORTHEAST TENNESSEE
  
CITY           SKY/WX    TMP DP  RH WIND       PRES   REMARKS
TRI CITIES     FAIR      64  55  72 CALM      30.13R                  
$$

TNZ012-013-036-069-073-074-221200-
CENTRAL EAST TENNESSEE
  
CITY           SKY/WX    TMP DP  RH WIND       PRES   REMARKS
KNOXVILLE      MOCLDY    64  60  87 CALM      30.04S                  
OAK RIDGE      FAIR      64  59  83 CALM      30.05F                  
$$

TNZ083-085-099-221200-
SOUTHEAST TENNESSEE
  
CITY           SKY/WX    TMP DP  RH WIND       PRES   REMARKS
CHATTANOOGA    MOCLDY    69  66  90 CALM      30.02S                  
$$

SKY/WX REPORTED AS FAIR MEANS FEW OR NO CLOUDS BELOW
12 THOUSAND FEET.